Showing default

CELTEE 1, 41850

Orbit data source: Space-Track

CELTEE 1, 41850 is a payload satellite owned by AFRL/RV (US) in SSO that was launched on Fri, 11 Nov 2016 UTC via an ATLAS V 401 launch vehicle from the Air Force Western Test Range (AFWTR). Payload-class satellites include a variety of spacecraft equipped with specific instruments for various scientific and technological missions. These include communications satellites like Starlink; space stations such as the ISS; scientific satellites like the Hubble; Earth observation satellites from companies like Planet Labs, Umbra, and HawkEye 360; GPS; miniature CubeSats for education and research; and military/defense satellites.

Loading next visibility...
Identifier
41850, 2016-067C
Orbit
SSO
Country
Flag of USUS
Related business
Manufacturer
M42 Tech
Mission
Operational Defense Technology
Bus & Motor
CUBESAT 1U, Unknown motor
Mass
1 kg wet, 1 kg dry
Launch date (UTC)
2016-11-11 (10 years ago)
Launch vehicle
ATLAS V 401
Launch site
Air Force Western Test Range (AFWTR)
Object type
Payload
Rocket body
Debris
Shape & HBR
Box, 0.1 m
Radar Cross Section
0.015 m², Medium (>0.1 m² and < 1m²)

Expand to show TLE details & history
Last TLE update: 2 days ago

TLE from 2 days ago
0 CELTEE 1
1 41850U 16067C   26171.10424451  .00004605  00000-0  21929-3 0  9997
2 41850  98.0669  37.8698 0001126 129.3909 230.7424 15.19706183526323
Epoch: 2026-06-20T02:30Z
TLE epoch observation values (Epoch: 2026-06-20T02:30:06.725Z)
Latitude
-0.00002°
Longitude
92.01812°
Altitude
510.289 km
Speed
7.608 km/s
True Right ascension
02h 31m 28s
True Declination
0° 00' 00"
Sunlit
Object was in daylight at epoch
Visualization orbit readout
Latitude
Unknown
Longitude
Unknown
Altitude
Unknown
Speed
Unknown
Apparent Right ascension
Unknown
Apparent Declination
Unknown
Sunlit
N/A
Visualization observer readout
Local Sidereal Time
21:37:11
Azimuth
Unknown
Elevation
Unknown
Doppler factor
Unknown
Orbital elements
Apogee altitude
504.499 km
Perigee altitude
502.949 km
Semi-major axis
6,881.861 km
Eccentricity
0.00011
Inclination
98.0669°
RAAN
37.8698°
Arg. of periapsis
129.3909°
True anomaly
230.73241°
Mean anomaly
230.7424°
Eccentric anomaly
230.7374°
Mean motion
3.80176 °/min
Orbital period
94.69 mins
BSTAR
0.00021929
Loading maneuver chart data...
Computing Atmospheric mass density...
Loading historical data...
Loading historical data...
Loading historical data...
Loading historical data...
Loading historical data...
Loading historical data...
Loading historical data...

Documentation

Showing up to 5 results
|